This is the latest recevied weather packets stored in our database for station/object KJ5IIV. If no packets are shown the sender has not sent any weather packets the latest 10 day(s).
| Time | Temp. | Humidity | Pressure | Rain* | Wind** | Luminosity | Snow |
|---|---|---|---|---|---|---|---|
| 1778182697 | 22.22° C | 53% | 1016.8 hPa | 0 mm | - | 568 W/m² | - |
| 1778182394 | 22.78° C | 53% | 1017 hPa | 0 mm | - | 487 W/m² | - |
| 1778182089 | 22.22° C | 55% | 1017.1 hPa | 0 mm | - | 546 W/m² | - |
| 1778181786 | 22.22° C | 56% | 1017.4 hPa | 0 mm | - | 624 W/m² | - |
| 1778181483 | 22.22° C | 54% | 1016.8 hPa | 0 mm | - | 475 W/m² | - |
| 1778181179 | 21.67° C | 55% | 1017 hPa | 0 mm | - | 709 W/m² | - |
| 1778180876 | 21.67° C | 55% | 1016.9 hPa | 0 mm | - | 479 W/m² | - |
| 1778180575 | 22.22° C | 56% | 1016.8 hPa | 0 mm | - | 495 W/m² | - |
| 1778180273 | 22.22° C | 56% | 1016.8 hPa | 0 mm | - | 448 W/m² | - |
| 1778179969 | 21.67° C | 58% | 1017 hPa | 0 mm | - | 131 W/m² | - |
| 1778179667 | 21.67° C | 57% | 1017.2 hPa | 0 mm | - | 1001 W/m² | - |
| 1778179365 | 21.11° C | 55% | 1017.2 hPa | 0 mm | - | 854 W/m² | - |
| 1778179061 | 21.11° C | 59% | 1017.4 hPa | 0 mm | - | 805 W/m² | - |
| 1778178758 | 21.11° C | 59% | 1017.1 hPa | 0 mm | - | 480 W/m² | - |
| 1778178456 | 21.11° C | 57% | 1017.2 hPa | 0 mm | - | 667 W/m² | - |
| 1778178150 | 20.56° C | 59% | 1017.4 hPa | 0 mm | - | 568 W/m² | - |
| 1778177848 | 20.56° C | 61% | 1017.2 hPa | 0 mm | - | 604 W/m² | - |
| 1778177544 | 20° C | 60% | 1017.4 hPa | 0 mm | - | 471 W/m² | - |
| 1778177240 | 20° C | 62% | 1017.2 hPa | 0 mm | - | 389 W/m² | - |
| 1778176937 | 20° C | 61% | 1017.5 hPa | 0 mm | - | 374 W/m² | - |
| 1778176633 | 20° C | 61% | 1017.4 hPa | 0 mm | - | 342 W/m² | - |
| 1778176330 | 20° C | 62% | 1017.6 hPa | 0 mm | - | 353 W/m² | - |
| 1778176028 | 20° C | 60% | 1017.6 hPa | 0 mm | - | 470 W/m² | - |
| 1778175725 | 20.56° C | 59% | 1017.5 hPa | 0 mm | - | 532 W/m² | - |
| 1778175422 | 20° C | 61% | 1017.8 hPa | 0 mm | - | 415 W/m² | - |
* Rain latest hour (hover to see other rain measurements)
** Current wind speed in m/s (hover to see current wind gust speed)